Regional Weather Roundup
Issued by NWS State College, PA

Home | Current Version | Previous Version | Graphics & Text | Print | Product List | Glossary Off
Versions: 1 2 3 4 5 6 7 8 9 10 11 12 13 14 15 16 17 18 19 20 21 22 23 24 25 26 27 28 29 30 31 32 33 34 35 36 37 38 39 40 41 42 43 44 45 46 47 48 49 50

000
ASUS41 KCTP 031010
RWRCTP

REGIONAL WEATHER ROUNDUP
NATIONAL WEATHER SERVICE STATE COLLEGE PA
500 AM EST TUE MAR 03 2015

Note: "fair" indicates few or no clouds below 12,000 feet with no
significant weather and/or obstructions to visibility.

* = STATION THAT DOES NOT REPORT PRECIPITATION /E.G. RAIN...SNOW...ETC/
    THUNDER OR FOG.

PAZ002>004-007>009-013>016-020>023-029>032-031100-
WESTERN PENNSYLVANIA

CITY           SKY/WX    TMP DP  RH WIND       PRES   REMARKS
ERIE           CLOUDY    16   8  71 S8        30.33S WCI   5
MEADVILLE        N/A     16   8  71 VRB3      30.27F
FRANKLIN*      CLOUDY    12   7  79 SE5       30.30R WCI   4
NEW CASTLE     CLOUDY    19  11  71 VRB5      30.31S WCI  12
BEAVER COUNTY  NOT AVBL
BUTLER*        CLOUDY    19  10  68 SE9       30.31R WCI   9
PITTSBURGH INT CLOUDY    20  14  77 E5        30.28S WCI  13
PITTSBURGH     CLOUDY    20  11  68 VRB3      30.28R
INDIANA*       CLOUDY    18  12  79 E5        30.34S WCI  11
LATROBE        CLOUDY    21  18  86 N5        30.31S WCI  15
WASHINGTON CO* CLOUDY    21  16  79 CALM      30.27F
$$

PAZ004>006-010>012-017>019-024>028-033>037-041-042-045-046-049>053-031100-
CENTRAL PENNSYLVANIA

CITY           SKY/WX    TMP DP  RH WIND       PRES   REMARKS
BRADFORD       MOCLDY     2  -3  80 CALM      30.24R
DUBOIS         MOCLDY    11   6  81 E6        30.27S WCI   1
CLEARFIELD     MOCLDY     9   4  80 CALM      30.32R
JOHNSTOWN      CLOUDY    16  10  77 E3        30.22F
ALTOONA        CLOUDY    18  10  71 CALM      30.32R
STATE COLLEGE  MOCLDY    13   7  76 CALM      30.36R
WILLIAMSPORT   PTCLDY    14   6  70 N3        30.40F
SELINSGROVE    MOCLDY    14   8  77 CALM      30.40F
FT INDIANTOWN  CLOUDY    21   8  56 NE2       30.40S
CAPITAL CITY   MOCLDY    23  11  60 E7        30.41R WCI  15
HARRISBURG     CLOUDY    23   9  55 CALM      30.40R
YORK           MOCLDY    19  13  77 CALM      30.39R
$$

PAZ038>040-043-044-047-048-054-055-060>062-067>071-031100-
EASTERN PENNSYLVANIA

CITY           SKY/WX    TMP DP  RH WIND       PRES   REMARKS
SCRANTON       PTCLDY    12   5  73 CALM      30.35S
MOUNT POCONO   PTCLDY     7   2  80 CALM      30.26S
ALLENTOWN      CLEAR     13   6  74 NW5       30.40S WCI   5
QUAKERTOWN*    SUNNY     14   7  73 CALM      30.40R
READING        FAIR      19   9  65 CALM      30.40S
LANCASTER      MOCLDY    21   9  59 NE5       30.40S WCI  15
COATESVILLE    MOSUNNY   23  10  58 CALM      30.40S
POTTSTOWN      CLEAR     18   8  65 CALM      30.43R
BLUE BELL      CLEAR     21  14  73 CALM      30.42R
DOYLESTOWN     CLEAR     16   8  71 CALM      30.41R
WILLOW GROVE   NOT AVBL
NORTH PHILA    CLEAR     24   8  50 NW5       30.45R
PHILADELPHIA   MOCLDY    25  11  55 N7        30.46R
$$


USA.gov is the U.S. government's official web portal to all federal, state and local government web resources and services.